Location: Habighorst
(52.7089°N, 10.2278°E)
Time: 00:23:07
(UTC+00:00)

USA 32 - Pass Details

Date: 13 January 2026
Orbit: 774 x 780 km, 85.0° (Epoch: 9 February)

Event Time Altitude Azimuth Distance (km) Brightness Sun altitude
Rises 05:36:00 0° 183° (S) 3,254 7.4 -15.7°
Reaches altitude 10° 05:38:21 10° 183° (S) 2,330 6.7 -15.4°
Maximum altitude 05:43:35 85° 94° (E) 791 4.1 -14.6°
Drops below altitude 10° 05:48:52 10° 8° (N) 2,347 6.4 -13.8°
Sets 05:51:13 0° 8° (N) 3,279 7.2 -13.5°
